ウィルタネン彗星

46P/Wirtanen (2018)

English version
Home page
Updated on June 15, 2014

---------------------------------------------------------------------

・ プロフィール

・ 軌道要素

Epoch 2018 Dec. 28.0 TT = JDT 2458480.5
T 2018 Dec. 12.95733 TT                                 MPC
q   1.0553632            (2000.0)            P               Q
n   0.18118308     Peri.  356.35189     +0.19784961     -0.95926193
a   3.0930786      Node    82.15970     +0.90441961     +0.09930510
e   0.6587984      Incl.   11.74616     +0.37799564     +0.26449016
P   5.44
From 1462 observations 1999 May 17-2014 Apr. 29, mean residual 0".7.
     Nongravitational parameters A1 = +0.34, A2 = -0.1422.

・ 星図

・ 光度変化

        m1 = 14.5 + 5 logΔ +  8.0 log r          [    ,-150]  (              〜2018年 7月15日)
        m1 =  8.0 + 5 logΔ + 27.0 log r(t - 12)  [-150, 180]  (2018年 7月15日〜2019年 6月10日)
        m1 = 14.5 + 5 logΔ +  8.0 log r          [ 180,    ]  (2019年 6月10日〜              )

---------------------------------------------------------------------

軌道要素はM.P.E.C. 2014-J58に掲載されたものです。
星図はステラナビゲータ Ver.8 (アストロアーツ) で作成したものです。
光度グラフはComet for Windowsで作成したものです。

---------------------------------------------------------------------

Copyright(C) Seiichi Yoshida (comet@aerith.net). All rights reserved.